Location: Ciungani
(46.1833°N, 22.5000°E)
Time: 00:10:28
(UTC+00:00)

Daily predictions for brighter satellites

Satellite Brightness Start Highest point End
(mag) Time Altitude Azimuth Time Altitude Azimuth Time Altitude Azimuth
Cosmos 2360 Rocket 4.1 01:14:06 26° ENE 01:14:06 26° ENE 01:18:05 10° ESE
Cosmos 2333 Rocket 4.5 01:21:11 13° N 01:24:23 20° NE 01:28:34 10° E
CZ-4C R/B 3.7 01:24:49 40° N 01:26:29 45° NE 01:34:18 10° ESE
COSMOS 2455 3.9 01:43:07 39° NNE 01:43:07 39° NNE 01:46:50 10° NNE
ALOS 3.2 02:04:18 10° NNE 02:08:19 46° ENE 02:08:19 46° ENE
Meteor 1-21 4.5 02:12:32 62° NNE 02:12:32 62° NNE 02:17:09 10° NNE
Cosmos 2366 rocket 4.0 02:05:19 10° N 02:11:43 80° E 02:18:04 10° S
CZ-4B R/B 3.8 02:08:32 10° NNE 02:13:36 66° E 02:13:36 66° E
PAYLOAD A 4.3 02:10:46 10° NNE 02:15:14 65° NE 02:15:14 65° NE
ATLAS CENTAUR R/B 4.1 02:21:57 12° N 02:21:57 12° N 02:22:35 10° N
USA 305 3.9 02:29:35 42° ESE 02:29:35 42° ESE 02:33:07 10° ENE
Cosmos 1484 Rocket 4.1 02:25:47 10° NNE 02:29:24 39° E 02:30:04 36° ESE
COSMOS 2428 4.2 02:24:24 10° NNW 02:29:34 34° NE 02:34:43 10° ESE
Cosmos 1538 Rocket 4.2 02:30:52 49° S 02:32:14 71° ESE 02:37:37 10° NNE
Cosmos 2084 3.9 02:33:39 62° ENE 02:33:39 62° ENE 02:37:58 10° SE
SL-4 R/B 3.0 02:37:43 42° SE 02:37:43 42° SE 02:40:33 10° SE
Cosmos 304 Rocket 4.2 02:38:49 49° S 02:38:49 49° S 02:42:20 10° SSE
CZ-2C R/B 2.9 02:35:21 10° N 02:38:50 45° NNW 02:38:50 45° NNW
Cosmos 2181 Rocket 3.9 02:42:48 55° WSW 02:43:42 60° WNW 02:49:56 10° N
Meteor 1-16 Rocket 4.0 02:42:47 10° N 02:48:16 88° E 02:53:35 10° S
Cosmos 2322 Rocket 3.4 02:51:36 25° SSW 02:51:36 25° SSW 02:54:08 10° S
Cosmos 2082 Rocket 4.1 02:51:57 15° NNW 02:51:57 15° NNW 02:54:13 10° N
Cosmos 2219 Rocket 2.7 02:47:54 10° NNW 02:53:31 59° ENE 02:59:06 10° SE
ARIANE 5 R/B 3.6 02:49:11 10° N 02:52:07 29° NNW 02:52:07 29° NNW
Lacrosse 5 3.0 02:56:07 27° SSW 02:56:07 27° SSW 02:59:04 10° S
Cosmos 1818 3.9 02:51:57 21° NNW 02:55:36 65° NE 03:01:02 10° SE
Cosmos 1821 Rocket 4.0 02:49:56 10° N 02:56:10 81° E 03:02:16 10° S
Cosmos 2360 Rocket 2.2 02:56:00 42° WNW 02:57:39 58° WSW 03:03:11 10° S
SL-08 R/B 4.5 02:51:41 10° N 02:58:11 84° W 03:04:38 10° S
Cosmos 1626 2.2 02:59:13 67° N 02:59:13 67° N 03:02:29 10° N
Spot 4 Rocket 4.0 02:53:47 10° N 02:58:49 57° WNW 02:59:49 48° WSW
USA 307 3.0 02:58:32 54° SSW 02:59:14 66° SE 03:03:24 10° ENE
USA 306 2.9 02:59:42 59° SSW 03:00:23 74° SE 03:04:38 10° ENE
Cosmos 332 Rocket 4.3 03:03:55 39° SW 03:03:55 39° SW 03:07:26 10° S
Cosmos 2237 Rocket 4.2 02:59:32 10° N 03:04:13 25° NE 03:08:51 10° ESE
Lacrosse 5 rocket 3.1 03:03:52 21° NNW 03:04:26 21° N 03:07:52 10° NE
Cosmos 2218 Rocket 4.3 03:01:11 10° NNW 03:07:06 41° W 03:12:57 10° SSW
FENGYUN 3A 3.9 03:03:29 10° N 03:08:41 48° WNW 03:10:26 35° WSW
Cosmos 2333 Rocket 2.2 03:03:39 10° NNW 03:09:27 88° WSW 03:15:14 10° SSE
Envisat 4.4 03:05:26 10° NNE 03:10:11 39° E 03:14:55 10° SSE
Cosmos 923 Rocket 4.3 03:06:04 10° S 03:11:13 68° ESE 03:16:23 10° NNE
Cosmos 1025 Rocket 3.5 03:07:20 10° S 03:11:35 61° E 03:15:49 10° NNE
Cosmos 220 Rocket 4.3 03:13:02 42° SW 03:13:02 42° SW 03:16:30 10° S
Cosmos 1680 Rocket 4.3 03:07:37 10° S 03:12:41 53° ESE 03:17:49 10° NNE
CZ-4C R/B 3.1 03:10:03 20° NW 03:15:28 60° WSW 03:23:46 10° SSE
SL-24 R/B - RUBIN 2 4.2 03:17:07 34° SW 03:17:07 34° SW 03:20:37 10° S
ERBS 3.8 03:16:02 18° S 03:17:51 32° SE 03:20:49 10° ENE
Cosmos 1346 Rocket 3.6 03:19:37 34° NW 03:19:37 34° NW 03:22:37 10° N
Cosmos 1674 4.4 03:22:58 19° NNW 03:22:58 19° NNW 03:24:23 10° N
USA 308 2.8 03:20:44 37° WSW 03:22:21 87° NW 03:26:38 10° ENE
COSMOS 2455 4.2 03:26:17 20° NW 03:27:39 21° NW 03:32:12 10° NNE
Cosmos 1953 2.8 03:27:39 36° W 03:27:49 36° W 03:31:30 10° SSW
Meteor 2-5 Rocket 4.3 03:22:58 10° S 03:28:22 58° E 03:33:54 10° NNE
USA 234 3.6 03:22:42 10° NE 03:29:12 65° SE 03:35:41 10° SW
H-2A R/B 3.4 03:25:43 10° NNE 03:29:27 56° E 03:33:07 10° S
Cosmos 2322 3.6 03:25:22 10° NNW 03:31:03 70° WSW 03:36:40 10° SSE
Meteor 1-31 Rocket 3.7 03:28:13 10° NNE 03:31:56 50° E 03:35:36 10° S
Cosmos 1441 Rocket 3.0 03:29:06 10° SSW 03:32:49 76° WNW 03:36:34 10° N
ISS -3.8 03:32:54 37° WSW 03:34:08 87° NNW 03:37:31 10° ENE
Cosmos 1300 2.5 03:30:27 10° N 03:34:16 80° W 03:38:03 10° S
Cosmos 1455 Rocket 3.2 03:30:24 10° NNW 03:34:41 49° W 03:38:57 10° SSW
COSMO-SKYMED 1 2.7 03:30:27 10° SSE 03:34:46 75° ENE 03:39:07 10° N
CZ-4B R/B 4.4 03:31:22 10° NNE 03:35:00 55° E 03:38:45 10° S
COSMOS 2487 2.4 03:38:47 21° SW 03:40:45 51° WNW 03:44:03 10° N
Cosmos 2112 Rocket 4.1 03:36:18 10° SSW 03:41:31 80° ESE 03:46:49 10° NNE
Cosmos 1371 Rocket 4.1 03:36:43 10° NNW 03:41:56 79° ENE 03:47:06 10° SSE
Meteor 2-10 Rocket 3.7 03:37:01 10° N 03:42:05 73° ENE 03:47:04 10° SSE
SL-27 R/B 4.2 03:44:09 16° NW 03:44:09 16° NW 03:45:29 10° NNW
ALOS 3.4 03:42:23 10° NNW 03:45:55 22° WNW 03:46:48 21° W
BREEZE-M DEB (TANK) 1.3 03:45:32 31° W 03:46:32 65° SSW 03:48:43 10° ESE
SL-14 R/B 3.5 03:42:48 10° SSW 03:46:34 44° WNW 03:50:19 10° N
Cosmos 1975 Rocket 3.7 03:45:05 10° SW 03:49:09 35° WNW 03:53:17 10° N
Cosmos 1544 Rocket 3.5 03:44:58 10° NNW 03:49:19 60° W 03:53:35 10° S
Cosmos 1624 Rocket 4.1 03:45:47 10° NNW 03:51:09 85° ENE 03:56:27 10° SSE
IRAS Rocket 4.5 03:45:40 10° SSE 03:51:17 77° ENE 03:56:55 10° NNW
Cosmos 1238 4.0 03:49:32 10° SSW 03:52:34 68° W 03:55:38 10° N
Meteor 1-24 Rocket 3.8 03:47:53 10° S 03:53:13 77° E 03:58:45 10° NNE
Meteor 1-4 Rocket 2.4 03:49:55 10° NNW 03:53:22 59° W 03:56:50 10° S
CZ-2C R/B 4.4 03:58:17 10° NNW 04:00:02 14° WNW 04:00:02 14° WNW
CBERS 1 LM4 rocket 4.3 03:55:52 10° N 04:00:50 73° WNW 04:05:36 10° SSW
Atlas Centaur 2 4.4 03:57:12 10° SW 04:01:00 16° S 04:04:22 10° SE
Cosmos 1484 Rocket 4.2 04:00:49 10° NNW 04:03:31 19° WNW 04:05:22 14° W
USA 276 2.4 04:03:15 18° W 04:05:23 51° NNW 04:08:26 10° ENE
CZ-4B R/B 4.1 04:03:50 10° ESE 04:06:13 20° ENE 04:08:37 10° NNE
USA 305 3.3 04:05:37 14° W 04:09:00 45° NNW 04:13:03 10° NE
NOSS 3-4 (A) 4.4 04:03:50 10° NW 04:10:38 59° NE 04:18:14 10° SE
NOSS 3-4 (C) 4.4 04:03:56 10° NW 04:10:44 59° NE 04:18:20 10° SE
CZ-2C R/B 2.8 04:07:52 10° S 04:13:19 61° W 04:18:54 10° NNW
COSMOS 2428 3.1 04:08:34 10° NW 04:13:57 44° WSW 04:19:20 10° S
SL-4 R/B 4.0 04:13:17 11° W 04:15:18 14° SW 04:17:27 10° SSW
CZ-2C R/B 4.2 04:10:29 10° NNE 04:15:29 47° E 04:20:12 10° S
ATLAS 2AS CENTAUR R/B 4.0 04:08:53 10° NNW 04:15:38 36° NNE 04:21:56 10° E
ATLAS CENTAUR R/B 3.1 04:15:18 10° NNW 04:16:55 17° NE 04:19:12 10° E
Cosmos 2297 Rocket 3.1 04:12:53 10° S 04:18:23 55° ESE 04:23:54 10° NE
NOSS 3-3 (A) 3.9 04:14:02 10° SW 04:19:45 70° NW 04:26:23 10° NE
NOSS 3-3 (C) 3.9 04:14:06 10° SW 04:19:50 71° NW 04:26:27 10° NE
Cosmos 44 Rocket 3.8 04:15:53 10° NW 04:20:30 40° WSW 04:24:58 10° S
Cosmos 292 Rocket 4.1 04:17:08 10° NNW 04:21:46 47° WSW 04:26:22 10° S
SKYMED 2 4.2 04:18:57 10° SSW 04:22:55 35° W 04:26:55 10° NNW
Cosmos 1605 Rocket 4.1 04:16:36 10° NNW 04:22:58 67° W 04:29:14 10° S
Landsat 5 4.0 04:19:26 10° SSW 04:23:04 34° W 04:26:50 10° NNW
BREEZE-M R/B 3.6 04:21:25 10° SSW 04:23:39 32° SE 04:26:23 10° ENE
H-2A R/B 2.0 04:22:31 10° SSE 04:26:40 84° ENE 04:30:48 10° NNW
Cosmos 1939 Rocket 4.5 04:23:15 10° NNE 04:27:13 42° E 04:31:09 10° S
Cosmos 1420 Rocket 4.0 04:22:35 10° NNW 04:27:45 68° WSW 04:32:53 10° S
YAOGAN 6 3.6 04:27:16 10° NNW 04:30:13 25° WNW 04:33:11 10° SW
CZ-4C R/B 3.8 04:27:46 10° SSW 04:31:00 32° W 04:34:14 10° NNW
Cosmos 1452 Rocket 3.9 04:29:17 10° NNW 04:34:35 69° ENE 04:39:50 10° SSE
Cosmos 2219 Rocket 3.3 04:32:40 10° NW 04:37:02 23° WSW 04:41:23 10° SSW
